{"data":{"norad_id":48460,"epoch":"2026-05-25T03:43:16.948128Z","epoch_age_seconds":71804,"freshness":"FRESH","line1":"1 48460U 21040AJ  26145.15505727  .00114721  00000+0  80975-3 0  9996","line2":"2 48460  53.0498 115.4284 0007812  41.7105 318.4507 15.73187610279841","mean_motion":15.7318761,"eccentricity":0.0007812,"inclination_deg":53.0498,"raan_deg":115.4284,"arg_perigee_deg":41.7105,"mean_anomaly_deg":318.4507,"bstar":0.00080975,"rev_number":27984,"period_min":91.5339016686,"perigee_km":344.53763902977,"apogee_km":355.04935764037,"semimajor_km":6727.9304983351,"source":"CELESTRAK","updated_at":"2026-05-25T13:38:16.719080Z"}}